Retour au catalogue

DELTA 1 DEB

ActifSSO
NORAD 21377·DEBRIS·🇺🇸 United States

Lancé Jun 12, 1975 depuis Vandenberg Space Force Base

Loading…

Prochains Passages (prochaines 24 heures)

TLE

FraisSource: Space-Track

Époque: Sep 13, 2026, 12:11 UTC

1 21377U 75052CX  26256.50773132  .00001076  00000-0  18706-2 0  9996
2 21377 100.2986 267.6719 0223910 174.5520 339.7601 13.36927378705311

Suivez DELTA 1 DEB en temps réel avec AllMySat

Download on the App Store